ECMWFNIL_850_temp_129.txt.gz
Temp
15 15 14 14 14 14 14 14 14 13 13 13 13 13 13 14 14 14 14 14 14 14 14 15 15 15 15 15 15 15 15 15 15 14 15 14 14 14 14 14 14 13
14 14 14 14 14 14 14 14 14 13 13 13 13 13 13 14 14 14 14 14 14 14 14 14 15 14 14 15 14 14 14 14 14 14 14 14 14 14 13 13 13 13
14 14 14 14 14 14 14 14 13 13 13 13 13 13 13 14 14 14 14 14 14 14 14 14 14 14 14 14 14 14 14 14 14 14 14 14 13 13 13 13 13 13
13 14 14 14 14 14 14 13 13 13 13 13 13 13 13 14 14 15 14 14 14 14 14 14 14 14 14 14 14 14 14 14 14 14 14 13 13 13 13 13 12 12
13 14 14 14 13 13 13 13 13 13 12 13 13 13 13 14 14 14 14 14 14 14 14 14 14 14 14 14 14 14 14 14 14 14 13 13 13 13 12 12 12 12
13 14 13 13 13 13 12 12 13 13 12 13 13 13 13 14 14 14 14 14 14 14 14 14 14 14 14 14 14 13 13 14 13 13 13 13 12 12 12 12 12 11
13 13 13 13 12 12 12 12 12 13 12 13 13 13 14 14 14 14 14 14 14 14 14 14 14 14 14 14 14 13 13 13 13 13 13 12 12 12 12 12 12 11
13 13 13 13 12 12 12 12 12 12 12 13 13 13 13 14 14 14 14 14 14 14 14 14 14 14 14 14 13 13 13 13 13 13 12 12 12 12 11 11 11 11
13 13 13 12 12 12 12 12 12 12 12 13 13 13 13 13 14 14 14 14 14 13 13 13 14 14 14 13 13 13 13 13 13 12 12 12 12 11 11 11 11 11
13 13 12 12 12 12 12 11 11 11 12 12 13 13 13 13 13 14 14 14 13 13 13 13 13 13 13 13 13 13 13 13 12 12 12 11 11 11 11 11 11 10
13 12 12 12 12 12 12 11 11 11 12 12 12 12 13 13 13 13 13 13 13 12 12 13 13 13 13 13 12 12 12 12 12 12 11 11 11 11 11 10 10 10
13 12 12 12 12 12 11 11 11 11 12 12 12 12 13 13 13 13 13 12 12 12 12 12 12 12 12 12 12 12 12 12 12 11 11 11 11 11 10 10 10 10
13 12 12 12 12 12 11 11 11 11 12 12 12 12 12 12 12 12 12 12 11 11 11 12 12 12 12 12 12 12 12 11 11 11 11 11 10 10 10 10 10 10
12 12 12 12 12 11 11 10 11 12 12 12 12 12 12 12 12 12 12 11 11 11 11 11 11 12 12 12 12 11 11 11 11 11 11 10 10 10 10 10 10 10
12 12 12 12 12 11 11 10 11 12 12 12 12 11 11 11 11 11 11 10 10 10 11 11 11 11 11 12 11 11 11 11 11 11 10 10 10 10 10 10 10 10
12 12 12 12 11 11 10 10 11 11 11 11 11 11 11 11 11 10 10 10 10 10 10 11 11 11 11 11 11 11 11 11 11 10 10 10 10 10 10 10 10 10
12 12 12 12 11 11 10 10 11 11 11 11 11 11 11 11 11 10 10 10 10 10 10 10 10 10 10 10 10 10 10 10 10 10 10 10 9 9 10 10 10 9
12 12 12 12 11 11 10 11 11 10 11 11 11 11 11 11 10 10 9 9 9 9 9 9 9 9 9 9 9 9 10 10 10 10 9 9 9 9 9 9 9 9
12 12 12 12 11 11 11 11 11 10 11 11 11 11 11 10 10 9 9 9 9 9 8 8 8 8 8 8 8 9 9 9 9 9 9 8 8 8 8 9 8 8
12 12 12 12 11 11 11 11 11 10 11 11 11 11 11 10 10 9 9 9 8 8 8 8 8 7 8 8 8 8 8 8 8 7 7 7 7 7 8 8 8 7
12 12 12 12 11 11 11 11 10 10 11 11 11 11 11 10 10 9 9 8 8 8 8 7 7 7 7 7 7 6 7 6 6 6 6 6 6 6 6 7 7 7
13 12 12 12 11 11 11 11 11 10 11 11 11 11 10 10 9 9 8 8 8 8 7 7 7 7 7 7 7 7 6 6 5 6 5 5 5 5 5 6 6 6
13 12 12 12 11 11 11 11 11 11 11 11 11 10 10 10 9 9 8 8 8 8 8 8 8 7 7 8 8 8 7 6 6 6 6 5 5 5 5 5 4 5
13 13 12 11 11 11 11 11 11 11 11 11 10 10 10 10 10 9 9 8 8 8 8 8 8 7 7 8 8 7 7 6 6 6 7 7 6 5 5 4 4 6
13 13 12 11 11 11 10 10 10 10 10 10 10 11 10 10 10 9 9 8 8 8 8 8 7 7 7 7 7 7 7 6 5 6 7 7 7 6 6 6 5 7
13 12 12 11 11 10 10 10 10 10 10 10 10 10 10 10 10 9 9 8 8 8 8 8 7 7 7 7 7 7 6 6 5 6 6 7 7 6 6 6 6 7

ECMWFNIL_850_temp_132.txt.gz
Temp
14 14 15 15 15 15 15 15 15 15 15 15 15 14 14 14 14 14 14 14 14 14 14 14 15 15 14 14 14 15 15 15 15 15 14 14 14 14 14 14 14 13
14 14 14 15 15 15 15 15 15 14 14 14 14 14 13 13 13 14 14 14 14 14 14 14 15 15 14 14 15 15 15 15 15 14 14 14 14 14 14 14 13 13
14 14 14 14 14 15 14 14 14 14 14 14 14 13 13 13 13 14 14 14 14 14 14 14 15 15 14 14 15 15 15 15 15 14 14 14 14 14 14 13 13 13
14 14 14 14 14 14 14 14 14 14 14 14 14 13 13 13 13 14 14 14 14 14 14 14 14 14 14 14 15 15 15 14 14 14 14 14 14 14 13 13 13 13
14 14 14 14 14 14 14 14 13 14 14 14 13 13 13 13 14 14 14 14 14 14 14 14 14 14 14 14 14 15 14 14 14 14 14 14 14 14 13 13 13 12
14 14 14 14 14 14 14 13 13 14 14 14 13 13 13 13 14 14 14 14 14 14 14 14 14 14 14 14 14 14 14 14 14 14 14 14 13 13 13 13 12 12
14 14 13 13 13 13 13 13 13 13 14 14 14 13 13 13 14 14 14 14 14 14 14 14 14 14 14 14 14 14 13 13 13 13 13 13 13 13 13 12 12 12
14 13 13 13 13 13 13 13 13 13 13 14 14 13 13 13 13 14 14 14 14 14 14 13 13 13 13 13 13 13 13 13 13 13 13 13 13 13 12 12 12 12
13 13 13 13 13 13 13 13 13 13 13 14 14 13 13 13 13 13 13 14 14 14 13 13 13 13 13 13 13 13 13 13 13 13 13 13 13 12 12 12 12 11
13 13 13 13 13 13 13 12 12 13 13 13 13 13 13 13 13 13 13 13 13 13 13 13 13 13 13 13 13 13 13 13 13 13 13 12 12 12 12 12 12 11
13 13 13 13 13 12 12 12 12 12 13 13 13 13 12 12 12 13 13 13 13 13 13 13 13 13 13 13 12 12 12 12 12 12 12 12 12 12 12 11 11 11
13 13 13 12 12 13 13 12 12 11 12 13 13 12 12 12 12 13 13 13 13 13 13 13 13 12 12 12 12 12 12 12 12 12 12 12 12 12 11 11 11 11
13 13 13 12 12 13 12 12 12 11 11 12 12 12 12 12 12 12 13 13 13 13 13 13 12 12 12 12 12 12 12 12 12 12 12 12 11 11 11 11 11 10
13 13 13 12 12 13 12 12 12 11 11 11 11 11 11 12 12 12 12 12 12 12 12 12 12 12 12 12 12 11 11 11 11 12 12 11 11 11 11 11 10 10
13 13 13 12 12 12 12 12 12 11 11 11 11 11 11 11 11 12 12 12 12 12 12 12 12 11 11 11 11 11 11 11 11 11 11 11 11 11 11 10 10 10
13 13 13 13 13 12 12 12 12 11 11 11 10 11 11 11 11 11 11 11 12 12 11 11 11 11 11 11 11 11 11 11 11 11 11 11 11 11 11 10 10 10
13 13 13 13 12 12 12 12 12 11 11 11 11 11 11 11 11 11 11 11 11 11 11 11 11 10 10 10 10 10 10 10 11 10 10 10 10 10 10 10 10 10
13 13 13 13 12 12 12 12 12 11 11 11 11 11 11 11 11 11 11 11 11 11 11 10 10 10 10 10 10 10 9 9 9 9 9 9 9 9 9 9 9 9
13 13 13 12 12 12 12 12 11 11 11 11 11 11 11 11 11 11 11 10 10 10 10 9 9 9 9 9 9 9 9 9 9 9 8 8 8 8 8 8 7 7
13 13 13 12 12 12 12 12 11 11 11 11 11 11 11 11 11 10 10 10 10 10 9 9 9 9 9 9 9 8 8 8 8 8 7 7 7 8 7 7 6 6
13 13 13 12 12 12 12 11 11 11 11 11 10 11 11 11 10 10 10 10 10 10 9 9 9 9 9 8 8 8 8 8 8 7 7 6 7 8 8 7 7 7
13 13 13 12 12 12 12 11 11 11 11 11 11 11 10 10 10 10 10 10 10 9 9 9 9 9 8 8 8 8 8 8 7 7 7 7 7 8 9 9 9 8
13 13 13 12 12 12 12 12 11 11 11 11 11 10 10 10 10 10 10 10 10 10 10 9 9 8 8 8 7 7 7 7 7 6 6 6 7 8 8 8 8 9
13 13 13 13 12 12 12 12 11 11 11 11 11 10 10 10 10 10 10 10 10 10 10 9 9 8 8 7 7 7 7 7 7 6 6 6 6 7 7 8 8 8
13 13 13 13 13 12 12 12 11 11 11 11 11 10 10 10 10 10 11 11 11 10 9 9 8 8 8 7 7 7 7 7 7 7 6 6 6 7 7 7 7 8
14 14 14 14 14 13 12 12 11 11 11 11 10 10 10 10 10 10 11 11 10 9 9 8 8 8 8 7 7 7 7 7 7 7 6 6 6 6 6 7 7 7

ECMWFNIL_850_temp_135.txt.gz
Temp
16 15 15 15 15 15 15 15 15 15 15 15 15 15 15 14 14 14 14 13 13 13 13 13 14 14 14 14 14 14 14 15 15 14 14 14 14 14 14 13 13 13
16 15 15 15 15 15 15 15 15 15 15 15 15 15 14 14 14 14 13 13 13 13 13 13 14 14 14 14 14 14 14 15 15 14 14 14 14 14 14 13 13 13
16 15 15 15 15 14 14 14 14 14 15 15 14 14 14 14 14 13 13 13 13 13 14 13 14 14 14 14 14 14 14 14 14 14 14 14 14 14 13 13 13 13
16 15 15 15 15 14 14 14 14 14 14 14 14 14 14 14 13 13 13 13 13 13 14 14 14 14 14 14 14 14 14 14 14 14 14 14 14 13 13 13 13 13
16 15 15 15 14 14 14 14 14 14 14 14 14 14 14 14 13 13 13 13 13 13 14 14 14 14 14 14 14 14 14 14 14 14 13 13 13 13 13 13 12 12
15 15 15 15 14 14 14 14 14 14 14 14 14 14 14 14 14 14 13 13 13 13 14 14 14 14 14 14 14 14 14 14 14 13 13 13 13 13 13 12 12 12
15 15 15 14 14 14 14 14 14 14 14 13 13 13 14 14 14 14 13 13 13 13 14 14 13 14 14 14 14 14 13 13 13 13 13 13 13 12 12 12 12 12
16 15 15 14 13 13 14 14 14 14 13 13 13 13 13 13 14 13 13 13 13 13 14 14 13 13 13 13 13 13 13 13 13 13 13 13 12 12 12 12 12 12
16 15 14 13 13 13 13 14 14 13 13 13 13 13 13 13 13 13 13 13 13 13 13 14 13 13 13 13 13 13 13 13 13 13 12 12 12 12 12 12 12 12
15 15 14 13 13 13 13 14 13 13 13 13 13 13 13 13 13 13 12 12 13 13 13 14 13 13 13 13 13 13 13 13 12 12 12 12 12 11 11 12 12 11
14 14 14 13 13 13 13 13 13 13 13 12 13 13 13 13 13 13 12 12 13 13 13 13 13 13 13 13 13 12 12 12 12 12 12 11 11 11 11 11 11 11
14 14 14 13 13 13 13 13 13 13 13 12 12 13 13 13 13 13 13 13 13 13 13 13 13 13 13 12 12 12 12 12 11 11 11 11 11 11 11 10 11 10
13 13 14 14 14 14 13 13 13 13 12 12 12 12 13 13 13 12 12 12 13 13 13 13 13 12 12 12 12 12 11 11 11 11 10 10 10 10 10 10 10 10
13 13 13 13 13 13 13 13 13 12 12 12 11 12 12 12 12 12 12 12 12 12 13 13 12 12 12 12 12 11 11 11 11 10 10 10 10 10 9 10 10 10
13 12 13 13 13 13 13 12 12 12 12 12 11 11 11 12 12 12 12 12 12 12 12 12 12 12 12 12 11 11 11 10 10 10 10 9 9 9 9 9 9 9
13 13 13 13 13 13 12 12 12 12 12 12 11 11 11 11 11 11 11 11 12 12 12 12 12 12 12 11 11 10 10 10 10 9 9 9 9 9 9 9 9 9
13 13 13 13 13 12 12 12 12 12 12 12 12 11 11 11 11 10 11 11 11 12 12 12 12 12 11 11 10 10 9 9 9 9 9 8 8 8 8 8 8 8
14 14 13 13 13 12 12 12 12 12 12 12 12 11 11 11 10 10 10 11 11 11 11 11 11 11 11 10 10 9 9 9 8 8 8 8 8 8 8 8 8 7
14 14 13 13 13 12 12 12 12 12 12 12 12 11 11 11 10 10 10 11 11 11 11 11 11 10 10 10 10 9 9 9 8 8 8 8 7 7 7 7 8 8
13 13 13 13 13 12 12 12 12 12 12 12 11 11 11 11 10 10 10 11 11 11 11 11 10 10 10 10 10 9 9 8 8 8 7 7 7 7 8 8 8 9
13 13 13 13 13 12 12 12 12 13 12 12 11 11 11 11 10 10 10 11 11 11 10 10 10 10 9 9 9 9 8 8 7 7 7 7 7 7 8 8 8 8
13 13 13 13 13 13 13 13 13 12 12 11 12 11 11 11 10 10 10 11 11 10 10 10 10 10 9 9 9 8 8 7 7 7 7 7 7 7 7 7 7 8
13 13 13 13 13 13 13 13 13 12 12 12 12 11 11 11 10 10 10 10 11 11 11 10 10 9 9 8 8 8 8 7 7 7 7 7 7 7 7 7 7 7
14 14 13 13 13 13 13 13 13 12 12 12 12 11 11 11 10 10 10 10 11 11 11 10 10 9 9 8 8 8 7 7 7 7 7 7 7 6 6 6 6 7
13 14 14 13 13 13 13 13 13 12 11 11 11 11 11 11 10 10 10 11 11 11 11 10 10 9 9 8 8 8 7 7 7 7 7 7 7 6 6 6 6 6
14 14 14 14 14 13 13 13 13 12 12 11 11 11 11 11 10 10 10 11 11 10 10 10 10 9 9 9 8 8 8 7 7 7 7 7 7 6 6 6 6 6

ECMWFNIL_850_temp_141.txt.gz
Temp
16 16 16 15 15 15 15 15 16 16 16 16 16 16 16 15 15 15 15 14 14 14 14 14 14 13 13 13 13 13 13 12 13 13 13 13 13 12 12 12 11 11
17 16 16 15 15 15 15 15 15 16 16 16 16 16 15 15 15 15 14 14 14 14 14 14 13 13 13 13 13 13 13 13 13 13 13 13 13 13 12 12 12 12
17 16 16 15 15 15 15 15 15 16 16 15 16 16 15 15 15 14 14 14 14 14 13 13 13 13 13 13 13 13 13 13 13 13 13 13 13 13 13 12 12 12
17 17 16 16 15 15 15 15 15 15 15 15 15 15 15 15 14 14 14 14 14 13 13 13 13 13 13 13 13 13 13 13 13 13 13 13 13 13 13 13 13 12
17 17 16 16 16 15 15 15 15 15 15 15 15 15 15 15 14 14 14 14 14 13 13 13 13 13 13 12 12 13 13 13 13 13 13 13 13 13 13 13 13 13
17 17 16 16 16 16 15 15 15 15 15 15 15 15 15 15 14 14 14 14 14 13 13 13 13 13 13 12 12 13 13 13 13 13 13 13 13 13 13 13 13 13
17 17 16 16 16 16 15 15 15 15 15 15 15 15 15 15 14 14 14 14 13 13 13 13 12 12 12 12 12 12 13 13 13 13 13 13 13 14 13 13 13 13
17 17 17 16 16 16 16 15 15 15 15 15 15 15 15 15 14 14 14 14 13 13 13 12 12 12 12 12 12 12 12 13 13 13 13 13 13 13 13 13 13 13
17 17 17 16 16 16 16 15 15 15 15 14 14 15 15 15 14 14 14 14 13 13 13 12 12 12 12 12 12 12 12 12 13 13 13 13 13 13 13 13 13 13
17 17 17 17 16 16 16 16 15 15 14 14 14 14 15 14 14 14 13 13 13 13 13 13 13 13 12 12 12 12 13 13 13 13 13 13 13 13 13 12 12 12
17 18 17 17 17 16 16 16 15 15 14 14 14 14 14 14 14 14 13 13 13 13 13 13 13 13 12 12 12 12 13 13 13 13 13 13 13 13 12 12 12 12
17 18 18 17 17 16 16 16 15 15 14 14 14 14 14 14 14 14 13 13 13 13 13 13 13 13 12 12 12 12 12 12 12 12 12 13 13 12 12 11 11 11
17 18 18 18 17 16 16 16 15 15 14 14 14 14 14 14 14 14 13 13 13 12 12 12 12 12 12 12 12 12 12 12 12 12 12 12 12 12 11 11 11 11
18 18 18 18 17 16 16 16 15 15 14 14 14 14 14 14 14 14 13 13 13 12 12 12 12 12 12 12 12 12 12 12 12 12 12 12 12 12 11 11 11 11
17 17 17 18 17 17 16 16 15 15 14 14 14 14 14 14 14 13 13 13 12 12 12 12 11 11 12 12 12 12 12 12 12 12 12 12 12 12 11 11 11 11
16 17 17 17 17 17 16 16 15 14 14 13 13 13 13 14 14 13 13 13 12 12 12 12 11 12 12 12 12 12 12 12 12 12 12 12 12 11 11 11 11 10
15 16 16 16 16 16 16 16 15 14 13 13 13 13 13 14 13 13 13 12 12 12 12 12 12 12 12 12 12 12 12 12 12 12 12 12 11 11 11 10 10 10
14 14 14 14 15 15 15 15 14 13 13 13 13 13 13 13 13 13 12 12 12 12 11 12 12 12 11 11 12 12 12 12 12 12 12 11 11 11 10 10 9 9
14 13 13 13 14 14 14 14 13 13 13 13 13 13 13 13 13 13 12 12 11 11 11 12 12 11 11 11 12 12 12 12 12 12 12 11 11 10 10 9 9 9
13 13 13 13 13 13 13 13 13 13 13 13 13 13 13 13 13 12 12 12 11 11 11 12 12 11 11 12 12 12 12 12 12 12 11 11 11 10 9 9 9 9
13 13 13 13 13 13 13 13 13 13 13 13 13 13 13 12 12 12 12 11 11 11 11 11 11 11 11 11 12 12 11 11 11 11 11 10 10 10 9 9 9 8
13 13 13 13 13 13 13 13 13 13 13 13 13 13 13 12 12 12 12 11 11 11 11 11 10 11 11 11 11 11 11 11 11 11 10 10 10 10 9 9 8 8
13 13 13 13 13 13 13 14 13 13 13 13 13 13 13 12 12 12 12 11 11 10 10 10 10 10 11 11 11 11 11 11 11 10 10 10 10 9 9 9 8 8
13 13 13 13 13 13 13 13 13 13 13 13 13 13 12 12 12 12 12 11 11 10 10 10 10 11 11 11 11 11 10 10 10 10 10 9 9 9 8 8 8 8
13 13 13 13 13 13 13 13 13 13 13 12 13 13 12 12 12 12 12 11 11 11 10 10 11 11 11 11 11 10 10 10 10 10 9 9 9 8 8 8 8 8
14 13 13 13 13 13 13 13 13 13 13 12 12 12 12 12 12 12 12 11 11 11 11 11 11 11 11 11 10 10 10 10 10 10 9 9 9 8 8 8 8 8

ECMWFNIL_850_temp_144.txt.gz
Temp
15 15 15 15 15 15 15 14 14 14 14 14 14 14 15 15 15 16 16 16 15 15 14 14 14 14 14 14 13 13 13 13 13 13 13 13 13 12 12 12 11 11
15 15 15 15 15 15 15 15 14 14 14 15 15 15 15 15 15 15 16 16 15 15 14 14 14 14 14 13 13 13 13 13 12 12 13 13 13 13 13 13 12 11
15 15 16 15 14 15 15 15 15 14 14 15 15 15 15 15 15 15 16 16 15 15 14 14 14 14 14 13 13 13 12 12 12 12 13 13 13 13 13 13 13 12
15 15 16 15 14 15 15 15 15 14 14 15 15 15 15 15 15 15 16 15 15 15 14 14 14 14 14 13 13 13 12 13 13 12 13 13 13 13 13 13 13 13
15 15 16 15 14 15 15 15 15 14 14 14 14 15 15 16 16 15 15 15 15 15 14 14 14 13 14 13 13 13 13 13 12 12 12 13 13 13 13 13 13 13
15 15 16 15 14 15 15 14 15 14 14 14 14 14 15 15 16 15 15 15 15 15 14 14 14 13 13 13 13 12 13 12 12 12 12 13 13 13 13 13 13 13
15 15 16 15 14 15 15 14 14 14 14 14 14 14 15 15 15 15 15 15 15 15 14 14 14 13 13 13 13 12 12 12 12 12 12 13 13 13 13 13 13 13
15 15 15 15 14 15 15 15 14 14 14 14 14 14 15 15 15 15 15 15 15 14 14 14 14 13 13 13 12 12 12 12 12 12 12 13 13 13 13 13 13 13
15 15 15 15 15 15 15 15 14 14 14 14 14 14 15 15 15 15 15 15 14 14 14 14 14 13 13 13 13 12 12 12 13 13 13 13 13 13 13 13 13 13
15 15 15 16 15 15 15 15 14 14 14 14 14 14 15 15 15 15 15 15 14 14 14 14 14 13 13 13 13 12 12 12 13 13 13 13 13 13 13 13 13 13
15 15 15 16 16 15 15 15 15 15 15 14 14 14 15 15 14 15 15 15 14 14 14 13 13 13 13 12 12 12 12 12 13 13 13 13 13 13 13 13 13 13
15 15 16 17 16 15 15 15 15 16 16 15 14 14 15 14 14 15 15 14 14 14 13 13 13 13 13 12 12 12 12 13 13 13 13 13 13 13 13 13 13 13
15 15 16 17 16 15 15 15 15 16 16 15 14 15 15 14 14 15 15 14 14 14 13 13 13 13 13 12 12 12 12 13 13 13 13 13 13 13 13 13 13 13
14 15 16 16 15 15 14 14 15 17 16 15 15 15 15 14 15 15 15 14 14 13 13 13 13 13 12 12 12 12 12 13 13 13 13 13 13 13 13 13 13 13
14 15 15 15 15 15 14 14 15 17 17 15 15 16 15 14 14 15 15 14 13 13 13 13 13 13 12 12 12 12 12 13 13 13 13 13 13 13 13 13 13 13
14 14 14 15 15 14 14 14 14 17 17 16 15 15 15 14 14 14 14 14 14 14 14 13 13 12 12 12 12 12 12 12 13 13 13 13 13 13 13 12 12 12
14 14 14 15 15 14 14 14 14 16 17 16 15 15 15 14 14 14 14 14 14 14 14 13 13 13 12 12 12 12 12 12 13 13 13 13 13 13 13 12 12 12
14 14 14 14 15 14 14 14 14 15 16 16 15 15 15 14 14 14 14 14 14 14 14 13 13 13 12 11 11 12 12 12 13 13 13 13 13 13 12 12 12 12
14 14 14 14 15 14 14 14 13 14 16 17 16 15 15 14 14 14 14 14 14 14 13 13 13 12 11 11 11 12 12 12 12 13 13 13 13 12 12 12 12 12
14 14 14 14 14 14 13 14 14 14 15 16 16 15 15 14 14 14 14 14 14 13 13 13 13 12 11 11 11 12 12 12 12 12 12 12 12 12 12 12 12 12
14 14 14 14 14 14 13 14 14 13 14 16 16 15 15 14 14 14 14 14 14 13 13 13 13 12 11 11 11 12 12 12 12 12 12 12 12 12 12 12 12 11
14 14 14 14 13 13 13 13 14 14 14 15 16 15 14 14 14 14 14 14 13 13 13 13 13 12 11 11 11 11 11 11 12 12 12 12 12 12 12 11 11 11
14 14 14 13 13 13 13 14 15 14 14 15 16 14 14 14 14 14 13 13 13 13 12 12 12 12 11 11 11 11 11 11 12 12 11 12 12 11 11 11 11 10
14 14 13 13 14 14 13 14 15 14 13 14 15 14 13 14 14 14 13 13 13 12 12 12 12 11 11 11 11 11 11 11 12 11 11 11 11 11 11 10 10 10
14 14 13 13 14 14 13 13 14 13 13 13 14 14 14 14 14 13 13 13 13 12 12 12 12 11 11 11 11 11 11 11 11 11 11 11 11 11 10 10 10 10
14 14 14 13 13 13 13 13 13 13 13 13 13 14 14 14 14 13 13 13 13 12 12 12 11 11 11 11 11 11 11 11 11 10 10 11 10 10 10 9 9 9